This demonstration page uses our WeatherBlox Daily Observations layout. Learn more.

Left ArrowRight Arrow

44.89941, -97.11507

Hourly Observations for May 26, 2022

Temp ( °F °C ) Dew Point ( °F °C ) Humidity (%) Winds ( mph kmh ) Pressure ( in mb ) Visibility ( mi km ) Precip ( " mm )
12:53 am 00:53 Clear with Mist and Fog 38 3.3 38 3.3 100 100 N 8 13 29.92 1013 6 10 0.00 0.00
1:07 am 01:07 Partly Cloudy with Mist and Fog 40 4.4 39 3.9 97 97 N 8 13 29.94 1014 3 5 0.00 0.00
1:15 am 01:15 Mostly Cloudy 44 6.7 43 6.1 96 96 N 8 13 29.92 1013 10 16 0.00 0.00
1:49 am 01:49 Cloudy 45 7 45 7 100 100 N 8 13 29.92 1013 10 16 0.00 0.00
1:53 am 01:53 Cloudy 45 7.2 45 7.2 100 100 N 7 11 29.91 1013 10 16 0.00 0.00
2:12 am 02:12 Cloudy 45 7.2 44 6.7 97 97 N 6 9 29.91 1013 10 16 0.00 0.00
2:40 am 02:40 Cloudy with Mist and Fog 44 6.7 43 6.1 96 96 N 7 11 29.91 1013 6 10 0.00 0.00
2:47 am 02:47 Cloudy with Mist and Fog 45 7 43 6 93 93 N 7 11 29.91 1013 2 3 0.00 0.00
2:50 am 02:50 Cloudy with Mist and Fog 45 7 45 7 100 100 N 7 11 29.91 1013 1 1 0.00 0.00
2:53 am 02:53 Cloudy with Fog 44 6.7 44 6.7 100 100 N 8 13 29.90 1013 1 1 0.00 0.00
3:01 am 03:01 Mostly Cloudy with Fog 44 6.7 43 6.1 96 96 NNE 7 11 29.91 1013 0 0 0.00 0.00
3:53 am 03:53 Mostly Cloudy with Fog 42 5.6 42 5.6 100 100 Calm 29.90 1012 0 0 0.00 0.00
4:17 am 04:17 Mostly Cloudy with Mist and Fog 42 5.6 42 5.6 100 100 Calm 29.93 1014 1 1 0.00 0.00
4:24 am 04:24 Cloudy with Mist and Fog 43 6.1 43 6.1 100 100 Calm 29.92 1013 2 2 0.00 0.00
4:28 am 04:28 Cloudy with Mist and Fog 43 6.1 43 6.1 100 100 Calm 29.93 1013 3 5 0.00 0.00
4:53 am 04:53 Cloudy 44 6.7 43 6.1 96 96 N 3 6 29.91 1013 9 14 0.00 0.00
5:34 am 05:34 Mostly Cloudy 42 5.6 42 5.6 100 100 NNW 5 7 29.94 1014 10 16 0.00 0.00
5:42 am 05:42 Partly Cloudy 41 5 41 5 100 100 NNW 5 7 29.94 1014 10 16 0.00 0.00
5:53 am 05:53 Sunny with Mist and Fog 40 4.4 40 4.4 100 100 NNW 6 9 29.93 1014 6 10 0.00 0.00
6:28 am 06:28 Partly Cloudy with Mist and Fog 38 3.3 38 3.3 100 100 NNE 5 7 29.97 1015 2 3 0.00 0.00
6:44 am 06:44 Mostly Cloudy with Mist and Fog 40 4.4 40 4.4 100 100 N 5 7 29.97 1015 4 6 0.00 0.00
6:53 am 06:53 Cloudy with Mist and Fog 43 6.1 42 5.6 97 97 N 3 6 29.94 1014 6 10 0.00 0.00
7:37 am 07:37 Partly Cloudy 45 7.2 44 6.7 97 97 N 6 9 29.95 1014 9 14 0.00 0.00
7:53 am 07:53 Partly Cloudy 47 8.3 45 7.2 93 93 N 8 13 29.94 1014 10 16 0.00 0.00
8:09 am 08:09 Mostly Cloudy 49 9.4 47 8.3 93 93 NNE 7 11 29.94 1014 10 16 0.00 0.00
8:35 am 08:35 Mostly Cloudy 48 8.9 46 7.8 93 93 NNW 9 15 29.95 1014 10 16 0.00 0.00
8:53 am 08:53 Partly Cloudy 49 9.4 46 7.8 90 90 N 6 9 29.95 1014 10 16 0.00 0.00
9:13 am 09:13 Mostly Cloudy 52 11.1 46 7.8 80 80 N 9 15 29.92 1013 10 16 0.00 0.00
9:27 am 09:27 Partly Cloudy 53 11.7 45 7.2 74 74 N 10 17 29.92 1013 10 16 0.00 0.00
9:53 am 09:53 Sunny 54 12.2 45 7.2 72 72 VRB 7 11 29.94 1014 10 16 0.00 0.00
10:53 am 10:53 Sunny 57 13.9 46 7.8 67 67 WNW 9 15 29.93 1014 10 16 0.00 0.00
11:53 am 11:53 Sunny 61 16.1 45 7.2 56 56 NNW 7 11 29.93 1014 10 16 0.00 0.00
12:53 pm 12:53 Sunny 62 16.7 45 7.2 54 54 VRB 6 9 29.93 1014 10 16 0.00 0.00
1:53 pm 13:53 Sunny 66 18.9 45 7.2 47 47 Calm 29.88 1012 10 16 0.00 0.00
2:53 pm 14:53 Sunny 68 20 44 6.7 42 42 Calm 29.88 1012 10 16 0.00 0.00
3:53 pm 15:53 Sunny 69 20.6 43 6.1 39 39 WNW 8 13 29.87 1012 10 16 0.00 0.00
4:53 pm 16:53 Sunny 71 21.7 45 7.2 39 39 NW 10 17 29.87 1011 10 16 0.00 0.00
5:53 pm 17:53 Sunny 70 21.1 41 5 35 35 WNW 3 6 29.87 1012 10 16 0.00 0.00
6:53 pm 18:53 Sunny 70 21.1 44 6.7 39 39 E 3 6 29.86 1011 10 16 0.00 0.00
7:53 pm 19:53 Sunny 71 21.7 43 6.1 36 36 Calm 29.86 1011 10 16 0.00 0.00
8:53 pm 20:53 Sunny 65 18.3 45 7.2 49 49 SE 3 6 29.86 1011 10 16 0.00 0.00
9:53 pm 21:53 Clear 64 17.8 44 6.7 48 48 ESE 3 6 29.87 1012 10 16 0.00 0.00
10:53 pm 22:53 Clear 59 15 45 7.2 60 60 SE 5 7 29.88 1012 10 16 0.00 0.00
11:53 pm 23:53 Clear 55 12.8 44 6.7 67 67 S 6 9 29.89 1012 10 16 0.00 0.00

Powered by AerisWeather